Content
SEND FEEDBACK

Daily
Averages
Monthly
Summary
Croatia

SIBENIK, CROATIA


Home > Europe > Croatia
Elevation: 246 feet     Latitude: 43 44N     Longitude: 015 55E

WEATHER
 
SELECT A DAY
Number of Records: 287,971;   Date Range: 1/10/97 - 8/31/14
 
SHARE

PRINT THIS DATA

[ ← Previous Day ]
WEATHER ALMANAC - JANUARY 23, 2013
[ Next Day → ]
[ °C ]   °F
Weather ElementAverageHighLow
Temperature46.9 °F52 °F (7:00 pm)39.2 °F (7:00 am)
Dewpoint42.3 °F44.6 °F (9:30 am)37.4 °F (7:00 am)
Humidity83.5 %93 % (2:00 am)66 % (7:00 pm)
Barometer29.80 in29.88 in (10:00 am)29.71 in (9:30 pm)
Wind Speed7.2 mph15 mph (5:00 pm)
Wind Gust23 mph (7:00 pm)
Weather ElementAverage
Visibility6.7 mi
Wind DirectionESE (105.9 °)

Weather ElementTotal
Precipitation---
Heating Degree Days19.4 (Base 65)
Averaged from 54 records on January 23, 2013
WEATHER CONDITIONS BREAKOUT
WIND DIRECTION BREAKOUT
WEATHER BY HOUR - JANUARY 23, 2013
[ °C ]   °F
Local TimeTemperatureDewpointHumidityBarometerVisibilityWind DirectionWind SpeedGust SpeedPrecipitationEventsConditions
12:30 AM42.8 °F39.2 °F87 %29.74 in6.2 miNW (320°)5.8 mphRainLight Rain
1:00 AM42.0 °F39.0 °F86 %29.76 in7.0 miNNW (330°)2.2 mphRainRain
1:00 AM42.8 °F39.2 °F87 %29.74 in6.2 miVariable1.2 mphRainRain
1:30 AM42.8 °F39.2 °F87 %29.74 in6.2 miVariable3.5 mphRainRain
2:00 AM41.0 °F39.2 °F93 %29.77 in6.2 miVariable1.2 mphMostly Cloudy
2:30 AM41.0 °F39.2 °F93 %29.77 in6.2 miCalmMostly Cloudy
3:00 AM41.0 °F39.2 °F93 %29.77 in6.2 miVariable3.5 mphScattered Clouds
3:30 AM41.0 °F39.2 °F93 %29.77 in6.2 miVariable3.5 mphScattered Clouds
4:00 AM42.0 °F39.0 °F86 %29.80 in7.0 miNNW (330°)4.5 mphRainLight Rain
4:00 AM41.0 °F39.2 °F93 %29.80 in6.2 miNNW (330°)4.6 mphRainLight Rain
4:30 AM41.0 °F39.2 °F93 %29.80 in6.2 miVariable3.5 mphMostly Cloudy
5:00 AM41.0 °F39.2 °F93 %29.80 in6.2 miVariable1.2 mphMostly Cloudy
5:30 AM41.0 °F39.2 °F93 %29.80 in6.2 miVariable3.5 mphRainLight Rain
6:00 AM41.0 °F39.2 °F93 %29.80 in6.2 miVariable1.2 mphMostly Cloudy
6:30 AM41.0 °F39.2 °F93 %29.80 in6.2 miNNW (330°)4.6 mphScattered Clouds
7:00 AM40.0 °F38.0 °F88 %29.83 in12.0 miNorth (350°)4.5 mphRainLight Rain
7:00 AM39.2 °F37.4 °F93 %29.80 in6.2 miNorth (350°)4.6 mphPartly Cloudy
7:30 AM39.2 °F37.4 °F93 %29.83 inVariable3.5 mphClear
8:00 AM39.2 °F37.4 °F93 %29.83 in6.2 miNNW (330°)4.6 mphPartly Cloudy
8:30 AM41.0 °F39.2 °F93 %29.86 in6.2 miNNW (330°)4.6 mphScattered Clouds
9:00 AM44.6 °F42.8 °F93 %29.86 in6.2 miVariable3.5 mphScattered Clouds
9:30 AM46.4 °F44.6 °F93 %29.86 in6.2 miVariable3.5 mphScattered Clouds
10:00 AM48.0 °F43.0 °F78 %29.88 in12.0 miENE (70°)2.2 mphScattered Clouds
10:00 AM48.2 °F42.8 °F82 %29.86 in6.2 miVariable2.3 mphPartly Cloudy
10:30 AM50.0 °F44.6 °F82 %29.86 in6.2 miVariable3.5 mphPartly Cloudy
11:00 AM50.0 °F42.8 °F76 %29.86 in6.2 miVariable3.5 mphScattered Clouds
11:30 AM50.0 °F44.6 °F82 %29.86 in6.2 miVariable3.5 mphScattered Clouds
12:00 PM50.0 °F44.6 °F82 %29.86 in6.2 miEast (100°)5.8 mphMostly Cloudy
12:30 PM50.0 °F44.6 °F82 %29.83 in6.2 miESE (110°)5.8 mphMostly Cloudy
1:00 PM51.8 °F44.6 °F76 %29.83 in6.2 miESE (110°)9.2 mphMostly Cloudy
1:30 PM51.8 °F44.6 °F76 %29.83 in6.2 miESE (110°)10.4 mphMostly Cloudy
2:00 PM51.8 °F44.6 °F76 %29.83 in6.2 miESE (110°)11.5 mphMostly Cloudy
2:30 PM51.8 °F44.6 °F76 %29.83 in6.2 miESE (110°)9.2 mphMostly Cloudy
3:00 PM51.8 °F44.6 °F76 %29.83 in6.2 miEast (100°)10.4 mphMostly Cloudy
3:30 PM51.8 °F44.6 °F76 %29.83 in6.2 miEast (100°)10.4 mphScattered Clouds
4:00 PM51.0 °F44.0 °F71 %29.83 in12.0 miEast (100°)11.2 mphPartly Cloudy
4:00 PM51.8 °F44.6 °F76 %29.83 in6.2 miEast (100°)10.4 mphScattered Clouds
4:30 PM51.8 °F44.6 °F76 %29.80 in6.2 miESE (110°)11.5 mphScattered Clouds
5:00 PM51.8 °F44.6 °F76 %29.80 in6.2 miESE (110°)15.0 mphScattered Clouds
5:30 PM51.8 °F44.6 °F76 %29.80 in6.2 miEast (100°)12.7 mphScattered Clouds
6:00 PM51.8 °F44.6 °F76 %29.80 in6.2 miEast (100°)13.8 mphScattered Clouds
6:30 PM51.8 °F44.6 °F76 %29.77 in6.2 miESE (110°)15.0 mphScattered Clouds
7:00 PM52.0 °F44.0 °F66 %29.78 in12.0 miEast (90°)11.2 mphMostly Cloudy
7:00 PM51.8 °F44.6 °F76 %29.77 in6.2 miEast (90°)10.4 mph23.0 mphMostly Cloudy
7:30 PM51.8 °F44.6 °F76 %29.77 in6.2 miESE (110°)11.5 mphRain-ThunderstormLight Thunderstorms and Rain
8:00 PM51.8 °F44.6 °F76 %29.77 in6.2 miESE (120°)13.8 mphRainRain
8:30 PM48.2 °F44.6 °F87 %29.77 in2.5 miEast (100°)15.0 mphRainRain Showers
9:00 PM46.4 °F42.8 °F87 %29.74 in6.2 miNE (40°)4.6 mphMostly Cloudy
9:30 PM50.0 °F44.6 °F82 %29.71 in6.2 miEast (90°)15.0 mphRainLight Rain
10:00 PM50.0 °F44.0 °F73 %29.73 in9.0 miEast (90°)11.2 mphRainLight Rain
10:00 PM50.0 °F44.6 °F82 %29.71 in6.2 miEast (90°)12.7 mphMostly Cloudy
10:30 PM50.0 °F44.6 °F82 %29.71 in6.2 miEast (100°)15.0 mphMostly Cloudy
11:00 PM50.0 °F44.6 °F82 %29.71 in6.2 miEast (80°)8.1 mphScattered Clouds
11:30 PM50.0 °F44.6 °F82 %29.71 in6.2 miENE (70°)10.4 mphScattered Clouds
Hourly data recorded from LDSP, located miles away from Sibenik, Croatia







STORIES FROM OUR PARTNERS